This demonstration page uses our WeatherBlox Daily Observations layout. Learn more.

38.89511, -77.03637

Hourly Observations for January 11, 2015

Temp ( °F °C ) Dew Point ( °F °C ) Humidity (%) Winds ( mph kmh ) Pressure ( in mb ) Visibility ( mi km ) Precip ( " mm )
12:52 am 00:52 Partly Cloudy 24 -4.4 6 -14.4 46 46 Calm 30.63 1037 10 16.0934 0 0
1:52 am 01:52 Mostly Cloudy 24 -4.4 7 -13.9 48 48 NE 3 6 30.62 1037 10 16.0934 0 0
2:52 am 02:52 Mostly Cloudy 23 -5 8 -13.3 53 53 Calm 30.63 1037 10 16.0934 0 0
3:52 am 03:52 Cloudy 23 -5 9 -12.8 55 55 Calm 30.63 1037 10 16.0934 0 0
4:52 am 04:52 Cloudy 22 -5.6 12 -11.1 66 66 NE 3 6 30.63 1037 10 16.0934 0 0
5:52 am 05:52 Cloudy 22 -5.6 12 -11.1 66 66 ENE 5 7 30.64 1038 10 16.0934 0 0
6:52 am 06:52 Mostly Cloudy 22 -5.6 12 -11.1 66 66 Calm 30.64 1038 10 16.0934 0 0
7:52 am 07:52 Mostly Cloudy 22 -5.6 12 -11.1 66 66 ENE 5 7 30.66 1038 10 16.0934 0 0
8:52 am 08:52 Mostly Cloudy 26 -3.3 16 -8.9 66 66 S 8 13 30.67 1039 10 16.0934 0 0
9:52 am 09:52 Mostly Sunny 28 -2.2 16 -8.9 60 60 S 7 11 30.69 1039 10 16.0934 0 0
10:52 am 10:52 Partly Cloudy 33 0.6 15 -9.4 47 47 S 9 15 30.68 1039 10 16.0934 0 0
11:52 am 11:52 Mostly Cloudy 35 1.7 14 -10 42 42 SSE 7 11 30.63 1037 10 16.0934 0 0
12:52 pm 12:52 Mostly Cloudy 39 3.9 14 -10 36 36 SSE 8 13 30.59 1036 10 16.0934 0 0
1:52 pm 13:52 Mostly Cloudy 42 5.6 11 -11.7 28 28 S 7 11 30.57 1035 10 16.0934 0 0
2:52 pm 14:52 Mostly Cloudy 42 5.6 12 -11.1 29 29 S 7 11 30.56 1035 10 16.0934 0 0
3:52 pm 15:52 Cloudy 41 5 15 -9.4 35 35 S 6 9 30.56 1035 10 16.0934 0 0
4:52 pm 16:52 Cloudy 39 3.9 15 -9.4 38 38 S 6 9 30.56 1035 10 16.0934 0 0
5:52 pm 17:52 Cloudy 38 3.3 19 -7.2 46 46 S 3 6 30.57 1035 10 16.0934 0 0
6:52 pm 18:52 Cloudy 39 3.9 15 -9.4 38 38 S 3 6 30.58 1036 10 16.0934 0 0
7:52 pm 19:52 Cloudy 37 2.8 19 -7.2 48 48 SSW 5 7 30.57 1035 10 16.0934 0 0
8:52 pm 20:52 Cloudy 38 3.3 17 -8.3 43 43 S 7 11 30.55 1035 10 16.0934 0 0
9:52 pm 21:52 Cloudy 38 3.3 19 -7.2 46 46 S 6 9 30.55 1035 10 16.0934 0 0
10:27 pm 22:27 Cloudy with Light Rain 37 3 21 -6 52 52 S 6 9 30.56 1035 10 16.0934 0 0.0254
10:52 pm 22:52 Cloudy with Light Rain 37 2.8 23 -5 57 57 S 6 9 30.53 1034 10 16.0934 0 0.0254
11:52 pm 23:52 Cloudy with Light Rain 37 2.8 24 -4.4 59 59 S 6 9 30.51 1033 10 16.0934 0 0.0254

Powered by AerisWeather